HZ102 ZJHK-VHHX

Flight info

Callsign HZ102
Flight time 0h 50m
Altitude 33000
Route SAMAS9WD SAMAS A202 SIKOU/N0410F330
Aircraft B738/M-SDE2E3FGHIRWXY/LB1

Departure

Time 2026-04-24 11:11
Airport Haikou Meilan International Airport (ZJHK)

Arrival

Time 2026-04-24 12:01
Airport Hong Kong International Airport Kai Tak (VHHX)
Time Latitude Longitude Altitude Speed Heading
2026-04-24 10:47 19.93812 110.46438 63 ft 0 kts 88°
2026-04-24 11:03 19.93795 110.46467 67 ft 5 kts 143°
2026-04-24 11:03 19.93753 110.46466 63 ft 4 kts 212°
2026-04-24 11:03 19.93735 110.46417 70 ft 8 kts 258°
2026-04-24 11:03 19.93699 110.46380 63 ft 8 kts 190°
2026-04-24 11:04 19.93662 110.46345 65 ft 8 kts 257°
2026-04-24 11:04 19.93660 110.46280 70 ft 14 kts 269°
2026-04-24 11:04 19.93661 110.46161 71 ft 16 kts 270°
2026-04-24 11:04 19.93662 110.46045 71 ft 15 kts 270°
2026-04-24 11:05 19.93661 110.45933 72 ft 15 kts 269°
2026-04-24 11:05 19.93660 110.45825 72 ft 14 kts 269°
2026-04-24 11:05 19.93658 110.45722 71 ft 14 kts 269°
2026-04-24 11:05 19.93663 110.45624 73 ft 13 kts 272°
2026-04-24 11:06 19.93662 110.45530 73 ft 13 kts 268°
2026-04-24 11:06 19.93658 110.45437 69 ft 12 kts 268°
2026-04-24 11:06 19.93657 110.45347 66 ft 12 kts 270°
2026-04-24 11:06 19.93657 110.45238 71 ft 17 kts 270°
2026-04-24 11:07 19.93655 110.45001 66 ft 15 kts 269°
2026-04-24 11:07 19.93656 110.44888 65 ft 15 kts 272°
2026-04-24 11:07 19.93656 110.44783 70 ft 14 kts 269°
2026-04-24 11:08 19.93655 110.44680 74 ft 14 kts 269°
2026-04-24 11:08 19.93655 110.44582 74 ft 13 kts 271°
2026-04-24 11:08 19.93655 110.44487 75 ft 13 kts 269°
2026-04-24 11:08 19.93653 110.44382 75 ft 15 kts 269°
2026-04-24 11:09 19.93651 110.44278 76 ft 9 kts 269°
2026-04-24 11:09 19.93652 110.44218 76 ft 9 kts 267°
2026-04-24 11:09 19.93626 110.44185 76 ft 9 kts 200°
2026-04-24 11:09 19.93559 110.44182 72 ft 10 kts 180°
2026-04-24 11:10 19.93495 110.44182 69 ft 8 kts 171°
2026-04-24 11:10 19.93475 110.44213 74 ft 0 kts 92°
2026-04-24 11:10 19.93475 110.44229 76 ft 10 kts 91°
2026-04-24 11:10 19.93475 110.44575 73 ft 86 kts 90°
2026-04-24 11:11 19.93477 110.45464 77 ft 151 kts 91°
2026-04-24 11:11 19.93499 110.46685 596 ft 161 kts 90°
2026-04-24 11:11 19.93497 110.47711 1923 ft 126 kts 89°
2026-04-24 11:11 19.93497 110.48593 2706 ft 123 kts 91°
2026-04-24 11:12 19.93496 110.49613 2993 ft 151 kts 91°
2026-04-24 11:12 19.93496 110.50864 3280 ft 187 kts 90°
2026-04-24 11:12 19.93496 110.52360 3504 ft 216 kts 91°
2026-04-24 11:12 19.93498 110.54047 3678 ft 240 kts 91°
2026-04-24 11:13 19.93501 110.55869 4109 ft 251 kts 90°
2026-04-24 11:13 19.93808 110.57728 4631 ft 263 kts 63°
2026-04-24 11:13 19.95008 110.59170 5485 ft 261 kts 29°
2026-04-24 11:13 19.96717 110.59767 6314 ft 259 kts
2026-04-24 11:14 19.98515 110.59842 7137 ft 258 kts 357°
2026-04-24 11:14 20.00297 110.59802 7973 ft 261 kts 356°
2026-04-24 11:14 20.02138 110.59758 8906 ft 261 kts 355°
2026-04-24 11:14 20.03963 110.59731 9817 ft 263 kts 355°
2026-04-24 11:15 20.05771 110.59715 10720 ft 263 kts 355°
2026-04-24 11:15 20.07629 110.59705 11460 ft 272 kts 355°
2026-04-24 11:15 20.09543 110.59698 12300 ft 275 kts 356°
2026-04-24 11:15 20.11456 110.59510 13039 ft 283 kts 345°
2026-04-24 11:16 20.13451 110.58966 13286 ft 310 kts 342°
2026-04-24 11:16 20.14878 110.58568 13425 ft 328 kts 343°
2026-04-24 11:16 20.17988 110.57739 13681 ft 361 kts 343°
2026-04-24 11:16 20.19643 110.57312 13851 ft 373 kts 344°
2026-04-24 11:17 20.22196 110.56665 14414 ft 379 kts 343°
2026-04-24 11:17 20.24766 110.56018 15117 ft 381 kts 343°
2026-04-24 11:17 20.27365 110.55364 15811 ft 385 kts 344°
2026-04-24 11:17 20.29986 110.54702 16383 ft 391 kts 343°
2026-04-24 11:18 20.32649 110.54028 17011 ft 395 kts 343°
2026-04-24 11:18 20.35333 110.53347 17613 ft 400 kts 343°
2026-04-24 11:18 20.38060 110.52656 18188 ft 404 kts 343°
2026-04-24 11:18 20.40804 110.51961 18702 ft 408 kts 343°
2026-04-24 11:19 20.43590 110.51287 19204 ft 413 kts 348°
2026-04-24 11:19 20.46492 110.51329 19642 ft 426 kts
2026-04-24 11:19 20.49285 110.52461 20157 ft 436 kts 28°
2026-04-24 11:19 20.51650 110.54537 20635 ft 446 kts 47°
2026-04-24 11:20 20.53690 110.58365 21223 ft 455 kts 69°
2026-04-24 11:20 20.54419 110.60522 21483 ft 459 kts 70°
2026-04-24 11:20 20.55458 110.63770 21849 ft 465 kts 71°
2026-04-24 11:20 20.56493 110.67041 22291 ft 467 kts 71°
2026-04-24 11:21 20.57538 110.70288 22741 ft 470 kts 71°
2026-04-24 11:21 20.58638 110.73634 23170 ft 473 kts 71°
2026-04-24 11:21 20.59743 110.76940 23561 ft 476 kts 71°
2026-04-24 11:21 20.60849 110.80228 23866 ft 479 kts 71°
2026-04-24 11:22 20.61997 110.83636 24227 ft 480 kts 70°
2026-04-24 11:22 20.63114 110.86958 24583 ft 482 kts 70°
2026-04-24 11:22 20.64249 110.90341 24869 ft 485 kts 70°
2026-04-24 11:22 20.65389 110.93734 25161 ft 488 kts 70°
2026-04-24 11:23 20.66487 110.96983 25448 ft 491 kts 70°
2026-04-24 11:23 20.67582 111.00221 25737 ft 493 kts 70°
2026-04-24 11:23 20.68771 111.03739 26044 ft 496 kts 70°
2026-04-24 11:23 20.69945 111.07216 26317 ft 498 kts 70°
2026-04-24 11:24 20.71123 111.10707 26604 ft 501 kts 70°
2026-04-24 11:24 20.72303 111.14211 26876 ft 504 kts 70°
2026-04-24 11:24 20.73487 111.17730 27294 ft 502 kts 70°
2026-04-24 11:24 20.74665 111.21235 27635 ft 502 kts 70°
2026-04-24 11:25 20.75849 111.24758 27845 ft 506 kts 70°
2026-04-24 11:25 20.77044 111.28318 28049 ft 509 kts 70°
2026-04-24 11:25 20.78239 111.31880 28286 ft 511 kts 70°
2026-04-24 11:25 20.79438 111.35459 28549 ft 513 kts 70°
2026-04-24 11:26 20.80646 111.39067 28800 ft 515 kts 70°
2026-04-24 11:26 20.81853 111.42675 29032 ft 517 kts 70°
2026-04-24 11:26 20.83045 111.46241 29288 ft 518 kts 69°
2026-04-24 11:26 20.84250 111.49854 29643 ft 517 kts 70°
2026-04-24 11:27 20.85318 111.53570 30035 ft 516 kts 74°
2026-04-24 11:27 20.86182 111.57300 30350 ft 515 kts 77°
2026-04-24 11:27 20.86955 111.61048 30612 ft 516 kts 77°
2026-04-24 11:27 20.87695 111.64763 30871 ft 517 kts 77°
2026-04-24 11:28 20.88463 111.68573 31173 ft 517 kts 77°
2026-04-24 11:28 20.89233 111.72278 31497 ft 517 kts 77°
2026-04-24 11:28 20.90032 111.76025 31828 ft 517 kts 76°
2026-04-24 11:28 20.90845 111.79764 32154 ft 517 kts 76°
2026-04-24 11:29 20.91666 111.83506 32450 ft 518 kts 76°
2026-04-24 11:29 20.92504 111.87312 32831 ft 517 kts 76°
2026-04-24 11:29 20.93319 111.91018 32981 ft 520 kts 76°
2026-04-24 11:29 20.94141 111.94763 32987 ft 520 kts 76°
2026-04-24 11:30 20.95786 112.02288 32980 ft 514 kts 76°
2026-04-24 11:30 20.97409 112.09742 33003 ft 516 kts 77°
2026-04-24 11:31 20.99036 112.17237 32999 ft 519 kts 76°
2026-04-24 11:31 21.00671 112.24781 32985 ft 522 kts 76°
2026-04-24 11:32 21.02314 112.32382 32984 ft 524 kts 76°
2026-04-24 11:32 21.03955 112.39989 32991 ft 525 kts 77°
2026-04-24 11:33 21.05593 112.47598 32985 ft 525 kts 77°
2026-04-24 11:33 21.07232 112.55231 33005 ft 526 kts 77°
2026-04-24 11:34 21.08865 112.62855 32996 ft 526 kts 77°
2026-04-24 11:34 21.10491 112.70460 32994 ft 527 kts 77°
2026-04-24 11:35 21.12123 112.78113 32994 ft 527 kts 77°
2026-04-24 11:35 21.13749 112.85758 33001 ft 526 kts 77°
2026-04-24 11:36 21.15370 112.93395 33014 ft 526 kts 76°
2026-04-24 11:36 21.16985 113.01023 32987 ft 524 kts 76°
2026-04-24 11:37 21.18593 113.08629 32987 ft 522 kts 76°
2026-04-24 11:37 21.20194 113.16226 32988 ft 522 kts 76°
2026-04-24 11:38 21.21793 113.23830 32257 ft 527 kts 77°
2026-04-24 11:38 21.22584 113.27593 31500 ft 525 kts 77°
2026-04-24 11:38 21.23398 113.31477 30632 ft 526 kts 77°
2026-04-24 11:39 21.24199 113.35304 29633 ft 528 kts 77°
2026-04-24 11:39 21.25000 113.39132 28515 ft 529 kts 77°
2026-04-24 11:39 21.25796 113.42943 27422 ft 528 kts 77°
2026-04-24 11:39 21.26597 113.46783 26326 ft 528 kts 77°
2026-04-24 11:40 21.27392 113.50595 25548 ft 519 kts 77°
2026-04-24 11:40 21.28178 113.54333 24770 ft 511 kts 76°
2026-04-24 11:40 21.29450 113.57836 23959 ft 503 kts 58°
2026-04-24 11:40 21.31589 113.60762 23123 ft 493 kts 44°
2026-04-24 11:41 21.34170 113.63051 22280 ft 473 kts 30°
2026-04-24 11:41 21.37043 113.64611 21562 ft 453 kts 19°
2026-04-24 11:41 21.39943 113.65805 20804 ft 438 kts 18°
2026-04-24 11:41 21.42750 113.66966 20069 ft 430 kts 19°
2026-04-24 11:42 21.45517 113.68152 19347 ft 428 kts 20°
2026-04-24 11:42 21.48251 113.69369 18649 ft 425 kts 20°
2026-04-24 11:42 21.50962 113.70601 17861 ft 422 kts 21°
2026-04-24 11:42 21.53671 113.71841 17075 ft 418 kts 21°
2026-04-24 11:43 21.56329 113.73057 16349 ft 414 kts 20°
2026-04-24 11:43 21.58965 113.74260 15632 ft 409 kts 20°
2026-04-24 11:43 21.61573 113.75447 14984 ft 405 kts 20°
2026-04-24 11:43 21.64102 113.76597 14807 ft 388 kts 19°
2026-04-24 11:44 21.66537 113.77706 14629 ft 373 kts 19°
2026-04-24 11:44 21.68893 113.78780 14463 ft 359 kts 19°
2026-04-24 11:44 21.71156 113.79810 14317 ft 346 kts 19°
2026-04-24 11:44 21.73306 113.80789 14174 ft 335 kts 18°
2026-04-24 11:45 21.75451 113.81764 14032 ft 324 kts 18°
2026-04-24 11:45 21.77483 113.82688 13777 ft 319 kts 18°
2026-04-24 11:45 21.79510 113.83611 13497 ft 314 kts 18°
2026-04-24 11:45 21.81516 113.84524 13228 ft 313 kts 18°
2026-04-24 11:46 21.83524 113.85437 12954 ft 313 kts 18°
2026-04-24 11:46 21.85528 113.86349 12684 ft 313 kts 19°
2026-04-24 11:46 21.87542 113.87266 12402 ft 314 kts 19°
2026-04-24 11:46 21.89555 113.88184 12141 ft 314 kts 19°
2026-04-24 11:47 21.91565 113.89100 11891 ft 314 kts 19°
2026-04-24 11:47 21.93576 113.90018 11617 ft 314 kts 20°
2026-04-24 11:47 21.95581 113.90934 11340 ft 312 kts 20°
2026-04-24 11:47 21.97564 113.91841 11061 ft 308 kts 20°
2026-04-24 11:48 21.99524 113.92737 10801 ft 303 kts 20°
2026-04-24 11:48 22.01460 113.93622 10517 ft 302 kts 20°
2026-04-24 11:48 22.03388 113.94503 10235 ft 301 kts 20°
2026-04-24 11:48 22.05307 113.95381 9973 ft 297 kts 20°
2026-04-24 11:49 22.07195 113.96245 9698 ft 293 kts 20°
2026-04-24 11:49 22.09060 113.97099 9429 ft 289 kts 20°
2026-04-24 11:49 22.10905 113.97943 9183 ft 286 kts 20°
2026-04-24 11:49 22.12740 113.98783 8932 ft 286 kts 20°
2026-04-24 11:50 22.14546 113.99609 8692 ft 286 kts 20°
2026-04-24 11:50 22.16386 114.00407 8440 ft 284 kts 13°
2026-04-24 11:50 22.18291 114.00479 8225 ft 266 kts 342°
2026-04-24 11:50 22.19842 113.99664 8109 ft 236 kts 317°
2026-04-24 11:51 22.20901 113.98366 7655 ft 226 kts 298°
2026-04-24 11:51 22.21538 113.96869 7308 ft 215 kts 284°
2026-04-24 11:51 22.21697 113.95307 6973 ft 205 kts 266°
2026-04-24 11:51 22.21650 113.93800 6694 ft 198 kts 266°
2026-04-24 11:52 22.21586 113.92345 6288 ft 195 kts 261°
2026-04-24 11:52 22.21515 113.90937 6098 ft 182 kts 268°
2026-04-24 11:52 22.21659 113.89628 5895 ft 175 kts 290°
2026-04-24 11:52 22.22385 113.88606 5772 ft 175 kts 319°
2026-04-24 11:53 22.23524 113.88137 5609 ft 180 kts 352°
2026-04-24 11:53 22.24750 113.88384 5441 ft 187 kts 21°
2026-04-24 11:53 22.25907 113.88981 5389 ft 184 kts 28°
2026-04-24 11:53 22.27027 113.89695 5141 ft 185 kts 25°
2026-04-24 11:54 22.28185 113.90291 4969 ft 183 kts 22°
2026-04-24 11:54 22.29331 113.90863 4866 ft 184 kts 35°
2026-04-24 11:54 22.30276 113.91801 4734 ft 185 kts 43°
2026-04-24 11:54 22.31197 113.92778 4549 ft 184 kts 52°
2026-04-24 11:55 22.31672 113.94025 4343 ft 179 kts 87°
2026-04-24 11:55 22.31763 113.95354 4163 ft 177 kts 89°
2026-04-24 11:55 22.31851 113.96677 3924 ft 176 kts 88°
2026-04-24 11:55 22.31939 113.97982 3724 ft 172 kts 88°
2026-04-24 11:56 22.32023 113.99239 3526 ft 169 kts 88°
2026-04-24 11:56 22.32107 114.00494 3315 ft 165 kts 88°
2026-04-24 11:56 22.32189 114.01711 3119 ft 162 kts 89°
2026-04-24 11:56 22.32268 114.02927 2968 ft 166 kts 88°
2026-04-24 11:57 22.32350 114.04189 2741 ft 165 kts 88°
2026-04-24 11:57 22.32429 114.05385 2545 ft 155 kts 87°
2026-04-24 11:57 22.32504 114.06519 2336 ft 148 kts 86°
2026-04-24 11:57 22.32577 114.07611 2179 ft 143 kts 88°
2026-04-24 11:58 22.32647 114.08675 1997 ft 140 kts 88°
2026-04-24 11:58 22.32715 114.09728 1820 ft 142 kts 86°
2026-04-24 11:58 22.32781 114.10748 1676 ft 131 kts 87°
2026-04-24 11:58 22.32844 114.11724 1505 ft 132 kts 86°
2026-04-24 11:59 22.32908 114.12712 1311 ft 131 kts 85°
2026-04-24 11:59 22.32972 114.13694 1143 ft 131 kts 84°
2026-04-24 11:59 22.33034 114.14672 972 ft 133 kts 84°
2026-04-24 11:59 22.33120 114.15678 832 ft 136 kts 82°
2026-04-24 12:00 22.33222 114.16704 661 ft 140 kts 83°
2026-04-24 12:00 22.33255 114.17749 509 ft 139 kts 93°
2026-04-24 12:00 22.32984 114.18719 350 ft 139 kts 122°
2026-04-24 12:00 22.32315 114.19491 105 ft 136 kts 132°
2026-04-24 12:01 22.31684 114.20198 34 ft 120 kts 133°
2026-04-24 12:01 22.31269 114.20667 33 ft 56 kts 133°
2026-04-24 12:01 22.31070 114.20910 35 ft 27 kts 134°
2026-04-24 12:01 22.30933 114.21045 34 ft 24 kts 133°
2026-04-24 12:02 22.30842 114.21184 35 ft 10 kts 121°
2026-04-24 12:02 22.30829 114.21229 35 ft 12 kts 92°
2026-04-24 12:02 22.30892 114.21246 35 ft 13 kts 317°
2026-04-24 12:02 22.30952 114.21173 35 ft 13 kts 311°
2026-04-24 12:03 22.31013 114.21105 35 ft 12 kts 314°
2026-04-24 12:03 22.31073 114.21039 35 ft 12 kts 314°
2026-04-24 12:03 22.31130 114.20973 35 ft 12 kts 313°
2026-04-24 12:03 22.31188 114.20908 33 ft 13 kts 314°
2026-04-24 12:04 22.31261 114.20827 33 ft 16 kts 314°
2026-04-24 12:04 22.31334 114.20744 35 ft 15 kts 313°
2026-04-24 12:04 22.31416 114.20654 35 ft 18 kts 314°
2026-04-24 12:04 22.31501 114.20559 35 ft 17 kts 313°
2026-04-24 12:05 22.31582 114.20468 34 ft 17 kts 315°
2026-04-24 12:05 22.31662 114.20380 33 ft 16 kts 314°
2026-04-24 12:05 22.31737 114.20296 34 ft 15 kts 314°
2026-04-24 12:05 22.31810 114.20214 34 ft 15 kts 313°
2026-04-24 12:06 22.31879 114.20135 34 ft 14 kts 313°
2026-04-24 12:06 22.31924 114.20084 36 ft 14 kts 313°
2026-04-24 12:06 22.31990 114.20012 35 ft 13 kts 315°
2026-04-24 12:06 22.32051 114.19948 36 ft 12 kts 325°
2026-04-24 12:07 22.32151 114.19914 36 ft 11 kts 352°
2026-04-24 12:07 22.32206 114.19912 36 ft 13 kts
2026-04-24 12:07 22.32293 114.19928 42 ft 12 kts 15°
2026-04-24 12:07 22.32374 114.19956 42 ft 12 kts 18°
2026-04-24 12:08 22.32454 114.19984 42 ft 12 kts 18°
2026-04-24 12:08 22.32526 114.20007 42 ft 9 kts
2026-04-24 12:08 22.32573 114.19972 42 ft 9 kts 284°
2026-04-24 12:08 22.32550 114.19913 42 ft 9 kts 226°
2026-04-24 12:09 22.32506 114.19865 41 ft 9 kts 224°
2026-04-24 12:09 22.32457 114.19814 40 ft 10 kts 224°
2026-04-24 12:09 22.32411 114.19765 40 ft 9 kts 224°
2026-04-24 12:09 22.32365 114.19749 41 ft 5 kts 141°
2026-04-24 12:10 22.32352 114.19776 41 ft 4 kts 111°
2026-04-24 12:10 22.32341 114.19810 41 ft 6 kts 108°
2026-04-24 12:10 22.32332 114.19840 40 ft 1 kts 108°
2026-04-24 12:11 22.32331 114.19846 41 ft 0 kts 106°